Bunkerville, Nevada
Current Conditions -  °F | °C
As of 5:55 PM on Saturday 22 Nov 2014 (Local Time) from KSGU Reporting Station
Clear Clear  
Wind Chill: 52°   Ceiling: Unl
Heat Index: 52°   Visibility: 10mi
Dew Point: 21°   Wind: 0mph
Humidity: 30%   Direction: NA
Pressure: 29.91"   Gusts: NA
Location:  36.77°N, 114.13°W
Report Text: KSGU 230155Z AUTO 00000KT 10SM CLR 11/M06 A2991 RMK AO1
Loading
Personal Weather Stations






























Interactive Weather Map New forecast layout! Learn more

10-Day Weather Forecast

Advertisements
Track Severe Weather on mobile